Farmington, MO

6:43 PM CST on December 12, 2019 (GMT -0600)
Farmington Regional

Weather History for KFAM - July, 2019

Change the Weather History Date:

Monday, July 15, 2019

  Actual Average Record
Temperature  
Mean Temperature 71 °F -  
Max Temperature 73 °F 84 °F 93 °F (2010)
Min Temperature 69 °F 65 °F 53 °F (2001)
Cooling Degree Days 6    
Growing Degree Days 21 (Base 50)    
Moisture  
Dew Point 70 °F    
Average Humidity 95    
Maximum Humidity 100    
Minimum Humidity 90    
Precipitation  
Precipitation 1.50 in - - ()
Sea Level Pressure  
Sea Level Pressure 30.01 in    
Wind  
Wind Speed 8 mph (SE)    
Max Wind Speed 16 mph    
Max Gust Speed 22 mph    
Visibility 8 miles    
Events Rain    
Averages and records for this station are not official NWS values.
T = Trace of Precipitation, MM = Missing Value Source: NWS Daily Summary

Daily Weather History Graph

Daily Weather History Graph

Search for Another Location

Airport or City:

Astronomy

Jul. 15, 2019 Rise Set
Actual Time 5:51 AM CDT 8:23 PM CDT
Civil Twilight 5:21 AM CDT 8:53 PM CDT
Nautical Twilight 4:43 AM CDT 9:31 PM CDT
Astronomical Twilight 4:01 AM CDT 10:13 PM CDT
Moon 7:40 PM CDT (7/15) 4:39 AM CDT (7/15)
Length of Visible Light 15h 32m
Length of Day
14h 31m
Waxing Gibbous, 99% of the Moon is Illuminated
Jul 15
Waxing Gibbous
Jul 16
Full
Jul 24
Last Quarter
Jul 31
New
Aug 7
First Quarter

Hourly Weather History & Observations

Time (CDT) Temp. Dew Point Humidity Pressure Visibility Wind Dir Wind Speed Gust Speed Precip Events Conditions
12:56 AM 70.0 °F 68.0 °F 93% 30.11 in 10.0 mi SE 6.9 mph - 0.00 in   Clear
1:56 AM 70.0 °F 66.9 °F 90% 30.08 in 10.0 mi SE 5.8 mph - N/A   Clear
2:56 AM 70.0 °F 68.0 °F 93% 30.07 in 10.0 mi ESE 4.6 mph - N/A   Clear
3:56 AM 70.0 °F 68.0 °F 93% 30.08 in 10.0 mi SE 5.8 mph - 0.00 in   Clear
4:44 AM 69.8 °F 68.0 °F 94% 30.08 in 10.0 mi SE 6.9 mph - 0.00 in Rain Light Rain
4:56 AM 70.0 °F 68.0 °F 93% 30.08 in 10.0 mi SE 5.8 mph - 0.00 in Rain Light Rain
5:22 AM 69.8 °F 68.0 °F 94% 30.07 in 10.0 mi SE 6.9 mph - 0.00 in   Scattered Clouds
5:56 AM 70.0 °F 68.0 °F 93% 30.07 in 10.0 mi SE 8.1 mph - 0.00 in   Mostly Cloudy
6:44 AM 69.8 °F 68.0 °F 94% 30.07 in 10.0 mi ESE 6.9 mph - N/A   Overcast
6:56 AM 70.0 °F 68.0 °F 93% 30.08 in 10.0 mi SE 6.9 mph - 0.00 in Rain Light Rain
7:03 AM 69.8 °F 68.0 °F 94% 30.07 in 10.0 mi ESE 9.2 mph - 0.00 in Rain Light Rain
7:56 AM 69.1 °F 68.0 °F 96% 30.08 in 10.0 mi SE 5.8 mph - 0.09 in Rain Rain
8:07 AM 69.8 °F 68.0 °F 94% 30.08 in 10.0 mi SE 6.9 mph - 0.02 in Rain Rain
8:27 AM 69.8 °F 68.0 °F 94% 30.08 in 7.0 mi ESE 6.9 mph - 0.07 in Rain Heavy Rain
8:56 AM 69.1 °F 68.0 °F 96% 30.08 in 6.0 mi East 8.1 mph - 0.24 in Rain Heavy Rain
9:03 AM 69.8 °F 68.0 °F 94% 30.06 in 7.0 mi East 10.4 mph - 0.06 in Rain Rain
9:56 AM 69.1 °F 68.0 °F 96% 30.07 in 6.0 mi East 11.5 mph - 0.38 in Rain Heavy Rain
10:56 AM 69.1 °F 68.0 °F 96% 30.04 in 9.0 mi East 12.7 mph - 0.30 in Rain Light Rain
11:56 AM 70.0 °F 69.1 °F 97% 30.03 in 6.0 mi East 16.1 mph 21.9 mph 0.12 in Rain Rain
12:56 PM 71.1 °F 70.0 °F 96% 30.01 in 4.0 mi ESE 12.7 mph 21.9 mph 0.16 in Rain Rain
1:42 PM 71.6 °F 69.8 °F 94% 29.99 in 1.8 mi East 15.0 mph - 0.10 in Rain Light Rain
1:56 PM 71.1 °F 70.0 °F 96% 30.00 in 2.0 mi East 11.5 mph - 0.13 in Rain Light Rain
2:23 PM 71.6 °F 71.6 °F 100% 29.97 in 3.0 mi ESE 13.8 mph - 0.03 in Rain Light Rain
2:56 PM 72.0 °F 71.1 °F 97% 29.98 in 7.0 mi ESE 10.4 mph - 0.05 in Rain Light Rain
3:56 PM 72.0 °F 72.0 °F 100% 29.97 in 4.0 mi ESE 8.1 mph - 0.00 in Rain Light Rain
4:22 PM 73.4 °F 71.6 °F 94% 29.95 in 2.5 mi ESE 6.9 mph - 0.01 in Rain Light Rain
4:33 PM 73.4 °F 71.6 °F 94% 29.95 in 4.0 mi ESE 10.4 mph - 0.01 in Rain Light Rain
4:56 PM 73.0 °F 72.0 °F 96% 29.95 in 7.0 mi SE 8.1 mph - 0.01 in Rain Light Rain
5:56 PM 73.0 °F 73.0 °F 100% 29.93 in 10.0 mi SE 9.2 mph - 0.01 in   Overcast
6:56 PM 73.0 °F 72.0 °F 96% 29.93 in 5.0 mi SSE 10.4 mph - 0.00 in Rain Light Rain
7:52 PM 73.4 °F 71.6 °F 94% 29.92 in 6.0 mi SE 9.2 mph - 0.01 in Rain Light Rain
7:56 PM 73.0 °F 72.0 °F 96% 29.94 in 6.0 mi SE 8.1 mph - 0.01 in Rain Light Rain
8:18 PM 73.4 °F 71.6 °F 94% 29.92 in 10.0 mi SE 8.1 mph - 0.00 in   Overcast
8:56 PM 72.0 °F 72.0 °F 100% 29.93 in 10.0 mi SE 6.9 mph - 0.00 in   Overcast
9:56 PM 73.0 °F 72.0 °F 96% 29.94 in 10.0 mi SE 9.2 mph - N/A   Overcast
10:17 PM 73.4 °F 71.6 °F 94% 29.93 in 10.0 mi SSE 6.9 mph - N/A   Overcast
10:56 PM 73.0 °F 71.1 °F 93% 29.94 in 10.0 mi SSE 9.2 mph - N/A   Overcast
11:48 PM 71.6 °F 71.6 °F 100% 29.94 in 10.0 mi South 9.2 mph - N/A   Overcast
11:56 PM 72.0 °F 71.1 °F 97% 29.95 in 10.0 mi SSE 8.1 mph - N/A   Overcast